When you browse on this site, cookies collect data to enhance your experience and personalize the content and advertising you see.
Visit our Privacy Policy to learn more. By continuing to use the site, you agree to this use of cookies and data.
  • In United Kingdom
  • List of Countries
  • For 7 days
  • Water Temperature
  • Weather Map
  • Weather Widgets
  • user-avatar
    Login

    Hourly Weather Frankfurt am Mein

    Today, 25 August, Sunday

    Time Temperature Precipitation Wind Pressure Humidity
    00:00 +20°C° 0 mm 1 mps 724 mmHg 77%
    01:00 +19°C° 0 mm 1 mps 724 mmHg 80%
    02:00 +19°C° 0 mm 1 mps 724 mmHg 82%
    03:00 +19°C° 0 mm 1 mps 724 mmHg 84%
    04:00 +18°C° 0 mm 1 mps 724 mmHg 86%
    05:00 +19°C° 0 mm 1 mps 724 mmHg 84%
    06:00 +17°C° 0 mm 0 mps 724 mmHg 81%
    07:00 +18°C° 0 mm 0 mps 724 mmHg 79%
    08:00 +20°C° 0 mm 0 mps 724 mmHg 72%
    09:00 +24°C° 0 mm 1 mps 725 mmHg 65%
    10:00 +27°C° 0 mm 1 mps 725 mmHg 57%
    11:00 +28°C° 0 mm 1 mps 725 mmHg 53%
    12:00 +29°C° 0 mm 1 mps 725 mmHg 49%
    13:00 +30°C° 0 mm 1 mps 725 mmHg 44%
    14:00 +30°C° 0 mm 1 mps 725 mmHg 42%
    15:00 +30°C° 0 mm 1 mps 725 mmHg 39%
    16:00 +31°C° 0 mm 1 mps 725 mmHg 37%
    17:00 +29°C° 0 mm 1 mps 724 mmHg 43%
    18:00 +27°C° 0 mm 1 mps 724 mmHg 49%
    19:00 +25°C° 0 mm 1 mps 724 mmHg 55%
    20:00 +22°C° 0.1 mm 0 mps 724 mmHg 59%
    21:00 +21°C° 0.1 mm 0 mps 724 mmHg 63%
    22:00 +20°C° 0.1 mm 0 mps 725 mmHg 68%
    23:00 +19°C° 0 mm 0 mps 724 mmHg 70%

    Tomorrow, 26 August, Monday

    Time Temperature Precipitation Wind Pressure Humidity
    00:00 +19°C° 0 mm 0 mps 724 mmHg 73%
    01:00 +18°C° 0 mm 0 mps 724 mmHg 75%
    02:00 +18°C° 0 mm 0 mps 724 mmHg 77%
    03:00 +18°C° 0 mm 0 mps 724 mmHg 79%
    04:00 +17°C° 0 mm 0 mps 724 mmHg 81%
    05:00 +18°C° 0 mm 0 mps 724 mmHg 79%
    06:00 +19°C° 0 mm 0 mps 724 mmHg 77%
    07:00 +19°C° 0 mm 0 mps 724 mmHg 76%
    08:00 +21°C° 0 mm 0 mps 724 mmHg 68%
    09:00 +24°C° 0 mm 0 mps 724 mmHg 61%
    10:00 +26°C° 0 mm 0 mps 725 mmHg 54%
    11:00 +27°C° 0.3 mm 0 mps 725 mmHg 50%
    12:00 +28°C° 0.3 mm 0 mps 724 mmHg 46%
    13:00 +29°C° 0.3 mm 0 mps 724 mmHg 43%
    14:00 +29°C° 0.1 mm 0 mps 724 mmHg 43%
    15:00 +31°C° 0.1 mm 1 mps 724 mmHg 43%
    16:00 +30°C° 0.1 mm 1 mps 723 mmHg 43%
    17:00 +29°C° 0 mm 1 mps 723 mmHg 48%
    18:00 +27°C° 0 mm 1 mps 723 mmHg 54%
    19:00 +26°C° 0 mm 1 mps 723 mmHg 59%
    20:00 +25°C° 0 mm 1 mps 723 mmHg 62%
    21:00 +24°C° 0 mm 1 mps 723 mmHg 65%
    22:00 +21°C° 0 mm 0 mps 723 mmHg 68%
    23:00 +20°C° 0 mm 0 mps 723 mmHg 70%

    Day after tomorrow, 27 August, Tuesday

    Time Temperature Precipitation Wind Pressure Humidity
    00:00 +20°C° 0 mm 0 mps 723 mmHg 72%
    01:00 +19°C° 0 mm 0 mps 723 mmHg 74%
    02:00 +19°C° 0 mm 0 mps 723 mmHg 76%
    03:00 +18°C° 0 mm 0 mps 722 mmHg 77%
    04:00 +18°C° 0 mm 0 mps 722 mmHg 79%
    05:00 +19°C° 0 mm 0 mps 722 mmHg 77%
    06:00 +19°C° 0 mm 0 mps 723 mmHg 75%
    07:00 +20°C° 0 mm 0 mps 723 mmHg 73%
    08:00 +22°C° 0 mm 0 mps 723 mmHg 65%
    09:00 +24°C° 0 mm 0 mps 724 mmHg 58%
    10:00 +27°C° 0 mm 0 mps 724 mmHg 50%
    11:00 +30°C° 0 mm 1 mps 724 mmHg 45%
    12:00 +31°C° 0 mm 1 mps 724 mmHg 39%
    13:00 +32°C° 0 mm 1 mps 724 mmHg 34%
    14:00 +31°C° 0 mm 1 mps 723 mmHg 33%
    15:00 +31°C° 0 mm 1 mps 723 mmHg 32%
    16:00 +31°C° 0 mm 1 mps 723 mmHg 31%
    17:00 +29°C° 0 mm 1 mps 723 mmHg 36%
    18:00 +28°C° 0 mm 1 mps 723 mmHg 41%
    19:00 +26°C° 0 mm 1 mps 722 mmHg 46%
    20:00 +25°C° 0 mm 1 mps 722 mmHg 48%
    21:00 +21°C° 0 mm 0 mps 723 mmHg 51%
    22:00 +20°C° 0 mm 0 mps 723 mmHg 53%
    23:00 +20°C° 0 mm 0 mps 723 mmHg 55%

    28 August, Wednesday

    Time Temperature Precipitation Wind Pressure Humidity
    00:00 +19°C° 0 mm 0 mps 722 mmHg 56%
    01:00 +19°C° 0 mm 0 mps 722 mmHg 57%
    02:00 +19°C° 0 mm 0 mps 722 mmHg 59%
    03:00 +19°C° 0 mm 0 mps 722 mmHg 60%
    04:00 +19°C° 0 mm 0 mps 722 mmHg 61%
    05:00 +19°C° 0 mm 0 mps 722 mmHg 62%
    06:00 +19°C° 0 mm 0 mps 722 mmHg 63%
    07:00 +20°C° 0 mm 0 mps 722 mmHg 64%
    08:00 +21°C° 0 mm 0 mps 722 mmHg 58%
    09:00 +25°C° 0 mm 1 mps 722 mmHg 52%
    10:00 +27°C° 0 mm 1 mps 722 mmHg 47%
    11:00 +28°C° 0 mm 1 mps 722 mmHg 43%
    12:00 +29°C° 0 mm 1 mps 722 mmHg 40%
    13:00 +31°C° 0 mm 2 mps 722 mmHg 36%
    14:00 +31°C° 0 mm 1 mps 722 mmHg 36%
    15:00 +31°C° 0 mm 1 mps 721 mmHg 35%
    16:00 +31°C° 0 mm 1 mps 721 mmHg 35%
    17:00 +29°C° 0 mm 1 mps 721 mmHg 40%
    18:00 +27°C° 0 mm 1 mps 721 mmHg 45%
    19:00 +26°C° 0 mm 1 mps 720 mmHg 50%
    20:00 +25°C° 0 mm 1 mps 720 mmHg 53%
    21:00 +24°C° 0 mm 1 mps 720 mmHg 56%
    22:00 +21°C° 0 mm 0 mps 720 mmHg 59%
    23:00 +22°C° 0.1 mm 1 mps 720 mmHg 62%

    29 August, Thursday

    Time Temperature Precipitation Wind Pressure Humidity
    00:00 +22°C° 0.1 mm 1 mps 720 mmHg 65%
    01:00 +21°C° 0.1 mm 1 mps 720 mmHg 69%
    02:00 +19°C° 0.5 mm 0 mps 720 mmHg 71%
    03:00 +19°C° 0.5 mm 0 mps 720 mmHg 74%
    04:00 +18°C° 0.5 mm 0 mps 720 mmHg 77%
    05:00 +18°C° 0 mm 0 mps 720 mmHg 77%
    06:00 +21°C° 0 mm 1 mps 720 mmHg 77%
    07:00 +21°C° 0 mm 1 mps 720 mmHg 77%
    08:00 +21°C° 0.1 mm 2 mps 721 mmHg 73%
    09:00 +23°C° 0.1 mm 2 mps 721 mmHg 69%
    10:00 +24°C° 0.1 mm 2 mps 721 mmHg 65%
    11:00 +24°C° 0.6 mm 3 mps 721 mmHg 66%
    12:00 +24°C° 0.6 mm 3 mps 722 mmHg 68%
    13:00 +24°C° 0.6 mm 3 mps 722 mmHg 69%
    14:00 +24°C° 0.5 mm 3 mps 722 mmHg 68%
    15:00 +24°C° 0.5 mm 3 mps 722 mmHg 66%
    16:00 +25°C° 0.5 mm 4 mps 722 mmHg 64%
    17:00 +24°C° 0.4 mm 3 mps 722 mmHg 68%
    18:00 +21°C° 0.4 mm 3 mps 722 mmHg 72%
    19:00 +20°C° 0.4 mm 2 mps 723 mmHg 76%
    20:00 +19°C° 0 mm 2 mps 723 mmHg 76%
    21:00 +18°C° 0 mm 2 mps 724 mmHg 76%
    22:00 +17°C° 0 mm 2 mps 724 mmHg 76%
    23:00 +16°C° 0 mm 2 mps 724 mmHg 78%

    30 August, Friday

    Time Temperature Precipitation Wind Pressure Humidity
    00:00 +15°C° 0 mm 2 mps 724 mmHg 79%
    01:00 +14°C° 0 mm 2 mps 725 mmHg 81%
    02:00 +14°C° 0 mm 1 mps 725 mmHg 80%
    03:00 +13°C° 0 mm 1 mps 725 mmHg 79%
    04:00 +13°C° 0 mm 1 mps 725 mmHg 78%
    05:00 +13°C° 0 mm 1 mps 725 mmHg 76%
    06:00 +14°C° 0 mm 1 mps 726 mmHg 74%
    07:00 +14°C° 0 mm 1 mps 726 mmHg 71%
    08:00 +16°C° 0 mm 1 mps 726 mmHg 63%
    09:00 +19°C° 0 mm 1 mps 727 mmHg 55%
    10:00 +21°C° 0 mm 1 mps 727 mmHg 46%
    11:00 +22°C° 0 mm 1 mps 727 mmHg 43%
    12:00 +23°C° 0 mm 1 mps 727 mmHg 39%
    13:00 +24°C° 0 mm 1 mps 726 mmHg 36%
    14:00 +24°C° 0 mm 1 mps 726 mmHg 35%
    15:00 +24°C° 0 mm 1 mps 726 mmHg 34%
    16:00 +24°C° 0 mm 1 mps 725 mmHg 33%
    17:00 +23°C° 0 mm 1 mps 725 mmHg 39%
    18:00 +21°C° 0 mm 1 mps 725 mmHg 45%
    19:00 +19°C° 0 mm 1 mps 725 mmHg 51%
    20:00 +18°C° 0 mm 1 mps 725 mmHg 52%
    21:00 +16°C° 0 mm 1 mps 725 mmHg 54%
    22:00 +15°C° 0 mm 1 mps 725 mmHg 56%
    23:00 +15°C° 0 mm 1 mps 725 mmHg 58%
    Show more